Flag for Taiwan Weather past 2 weeks in Taipei, Taiwan

Now
81 °F

Broken clouds.


Feels Like: 82 °F
Forecast: 70 / 85 °F
Wind: 10 mph from East

Location: Sungshan / Taipei

Current Time: Apr 26, 2015 at 4:19:09 PM

Latest Report: Apr 26, 2015 at 3:30 PM


Visibility: N/A

Pressure: 29.95 "Hg

Humidity: 54%

Dew point: 63 °F

Location of TaipeiLocation

Historic Weather in Taipei — Graph

°F

Taipei temperature yesterday

Maximum temperature yesterday: 77 °F (at 1:30 PM)
Minimum temperature yesterday: 70 °F (at 2:00 AM)
Average temperature yesterday: 72 °F

Past Weeks' High & Low Weather Summary

 TemperatureHumidityPressure
High90 °F (Apr 20, 11:30 AM)100% (Apr 11, 10:30 PM)30.15 "Hg (Apr 11, 10:30 PM)
Low54 °F (Apr 15, 5:00 AM)20% (Apr 15, 12:00 PM)29.65 "Hg (Apr 20, 1:00 AM)
Average71 °F69%29.98 "Hg
* Reported Apr 11 3:00 PM — Apr 26 3:00 PM, Taipei, Weather by CustomWeather, © 2015

Note: Actual official high and low records may vary slightly from our data, if they occured in-between our weather recording intervals... More about our weather records

Advertising

Taipei weather history for previous 24 hours

 ConditionsComfort  
Time TempWeatherWind HumidityBarometerVisibility
3:00 PM
Sun, Apr 26
82 °FBroken clouds.12 mph55%29.95 "HgN/A
2:30 PM82 °FPartly sunny.13 mph51%29.95 "HgN/A
2:00 PM82 °FPartly sunny.13 mph51%29.95 "HgN/A
1:30 PM82 °FBroken clouds.12 mph51%29.98 "HgN/A
1:00 PM82 °FPartly sunny.12 mph55%29.98 "HgN/A
12:30 PM82 °FPartly sunny.13 mph51%29.98 "HgN/A
12:00 PM82 °FPartly sunny.12 mph55%30.01 "HgN/A
11:30 AM82 °FScattered clouds.12 mph51%30.01 "HgN/A
11:00 AM81 °FPassing clouds.13 mph58%30.04 "HgN/A
10:30 AM79 °FScattered clouds.14 mph58%30.04 "HgN/A
10:00 AM79 °FScattered clouds.14 mph61%30.04 "HgN/A
9:30 AM79 °FScattered clouds.12 mph58%30.07 "HgN/A
9:00 AM77 °FPartly sunny.14 mph61%30.07 "HgN/A
8:30 AM75 °FPartly sunny.13 mph65%30.07 "HgN/A
8:00 AM75 °FPartly sunny.13 mph65%30.07 "HgN/A
7:30 AM75 °FPartly sunny.13 mph65%30.04 "HgN/A
7:00 AM73 °FPassing clouds.13 mph69%30.04 "HgN/A
6:30 AM72 °FPassing clouds.13 mph73%30.01 "HgN/A
6:00 AM72 °FScattered clouds.12 mph69%30.01 "HgN/A
5:00 AM72 °FPassing clouds.13 mph69%30.01 "HgN/A
4:00 AM70 °FPassing clouds.15 mph73%29.98 "HgN/A
3:00 AM70 °FPassing clouds.15 mph69%29.98 "HgN/A
2:00 AM72 °FPassing clouds.14 mph61%30.01 "HgN/A
1:00 AM70 °FPassing clouds.17 mph64%30.01 "HgN/A
12:00 AM70 °FPassing clouds.16 mph64%30.04 "HgN/A
11:30 PM
Sat, Apr 25
70 °FPassing clouds.15 mph64%30.07 "HgN/A
11:00 PM70 °FPassing clouds.17 mph64%30.07 "HgN/A
10:30 PM70 °FPassing clouds.17 mph64%30.07 "HgN/A
10:00 PM70 °FPassing clouds.15 mph64%30.07 "HgN/A
9:30 PM70 °FPassing clouds.15 mph64%30.07 "HgN/A
9:00 PM70 °FPassing clouds.16 mph64%30.07 "HgN/A
8:30 PM70 °FPassing clouds.17 mph64%30.07 "HgN/A
8:00 PM70 °FPassing clouds.16 mph69%30.07 "HgN/A
7:30 PM70 °FPassing clouds.17 mph69%30.07 "HgN/A
7:00 PM70 °FPassing clouds.17 mph69%30.04 "HgN/A
6:30 PM70 °FPassing clouds.17 mph64%30.04 "HgN/A
6:00 PM72 °FPartly sunny.20 mph61%30.04 "HgN/A
5:30 PM72 °FPartly sunny.21 mph57%30.04 "HgN/A
5:02 PM72 °FPartly sunny.21 mph57%30.04 "HgN/A
4:30 PM72 °FPartly sunny.23 mph61%30.04 "HgN/A
4:00 PM73 °FPartly sunny.23 mph57%30.04 "HgN/A
Weather by CustomWeather, © 2015

See weather overviewHow to use our weather pages